Regional Weather Roundup
Issued by NWS

Home | Current Version | Previous Version | Graphics & Text | Print | Product List | Glossary Off
Versions: 1 2 3 4 5 6 7 8 9 10 11 12 13 14 15 16 17 18 19 20 21 22 23 24 25 26 27 28 29 30 31 32 33 34 35 36 37 38 39 40 41 42 43 44 45 46 47 48 49 50

000
ASUS43 KMKX 142100
RWRWI

WISCONSIN REGIONAL WEATHER ROUNDUP
NATIONAL WEATHER SERVICE MILWAUKEE/SULLIVAN WI
400 PM CDT SUN SEP 14 2014

NOTE: "FAIR" INDICATES FEW OR NO CLOUDS BELOW 12,000 FEET WITH NO
SIGNIFICANT WEATHER AND/OR OBSTRUCTIONS TO VISIBILITY.

WIZ001-002-006>008-014>016-023>028-142200-
NORTHWEST WISCONSIN

CITY           SKY/WX    TMP DP  RH WIND       PRES   REMARKS
SUPERIOR ARPT  CLOUDY    61  43  51 W9        30.05S
ASHLAND        PTSUNNY   61  43  51 W13G20    30.04R
HAYWARD        CLOUDY    60  41  49 W8        30.06S
SIREN          PTSUNNY   60  41  49 W8        30.08S
RICE LAKE      MOSUNNY   63  38  40 W14       30.09S
LADYSMITH      PTSUNNY   63  40  43 SW15G22   30.08S
EAU CLAIRE     MOSUNNY   66  40  38 W14       30.08F
MENOMONIE      CLEAR     66  37  34 W14       30.09S
NEW RICHMOND   MOSUNNY   63  38  39 W10G16    30.09F
OSCEOLA        MOSUNNY   63  40  44 W13G20    30.12S
$$

WIZ003>005-009-010-017-018-142200-
NORTH CENTRAL WISCONSIN

CITY           SKY/WX    TMP DP  RH WIND       PRES   REMARKS
WOODRUFF       PTSUNNY   62  42  48 W15       30.04S
RHINELANDER    MOSUNNY   61  41  47 W13G24    30.06S
EAGLE RIVER    PTSUNNY   62  39  42 W18G24    30.03S
LAND O LAKES   MOSUNNY   59  40  50 SW9       30.03S
PHILLIPS       PTSUNNY   59  40  50 W7G16     30.05R
TOMAHAWK       MOSUNNY   61  43  50 W10G18    30.06F
MEDFORD        PTSUNNY   62  45  53 SW13G24   30.08S
MERRILL        PTSUNNY   60  48  63 W16       30.07S
$$

WIZ029-030-035-036-043>047-142200-
CENTRAL WISCONSIN

CITY           SKY/WX    TMP DP  RH WIND       PRES   REMARKS
WAUSAU         MOSUNNY   64  48  56 W15G22    30.06F
MOSINEE        NOT AVBL
MARSHFIELD     PTSUNNY   65  48  54 W17G29    30.08F
STEVENS POINT  PTSUNNY   63  46  53 SW15G22   30.09F
WAUPACA        CLOUDY    66  46  47 SW14      30.10S
WAUTOMA        NOT AVBL
WISC RAPIDS    LGT RAIN  66  46  48 SW15G22   30.10F
CAMP DOUGLAS   SUNNY     67  50  54 SW9       30.10F
$$

WIZ011>013-019>022-031-037>040-048>050-142200-
NORTHEAST WISCONSIN

CITY           SKY/WX    TMP DP  RH WIND       PRES   REMARKS
ANTIGO         PTSUNNY   61  48  62 W14G21    30.07S
STURGEON BAY   CLOUDY    61  45  55 SW12G20   30.10S
GREEN BAY      MOSUNNY   64  46  52 SW16G22   30.10F
MANITOWOC      NOT AVBL
APPLETON       PTSUNNY   64  45  48 SW17G24   30.11F
CLINTONVILLE   PTSUNNY   64  43  45 SW14G22   30.08F
OSHKOSH        MOSUNNY   64  45  49 SW17G24   30.11F
$$

WIZ032>034-041-042-053>061-142200-
SOUTHWEST WISCONSIN

CITY           SKY/WX    TMP DP  RH WIND       PRES   REMARKS
LA CROSSE      PTSUNNY   69  48  47 SW13      30.09F
SPARTA         MOSUNNY   68  46  44 SW10G22   30.10F
VIROQUA        MOCLDY    65  46  50 SW12      30.12F
BOSCOBEL       MOSUNNY   70  46  42 SW10G21   30.14F
PRAIRIE DU CHI MOSUNNY   67  45  44 S10       30.13F
PLATTEVILLE    FAIR      65  46  49 S6G18     30.17F
$$

WIZ056-057-062-063-064-067-068-142200-
SOUTH CENTRAL WISCONSIN

CITY           SKY/WX    TMP DP  RH WIND       PRES   REMARKS
BARABOO/DELLS  MOSUNNY   66  43  42 W12G23    30.12F
LONE ROCK      NOT AVBL
WATERTOWN      PTSUNNY   65  45  48 SW13G21   30.15F
MADISON        MOSUNNY   66  45  46 SW10G17   30.15F
MIDDLETON      FAIR      67  43  42 SW14      30.15F
MONROE         SUNNY     64  45  48 SW15G23   30.17F
JANESVILLE     MOSUNNY   66  43  42 S16G22    30.17F
$$

WIZ051-052-058>065-066-070>072-142200-
SOUTHEAST WISCONSIN

CITY           SKY/WX    TMP DP  RH WIND       PRES   REMARKS
MILWAUKEE      MOSUNNY   63  42  46 SW13      30.17F
WAUKESHA       MOSUNNY   61  43  51 SW12G23   30.18F
MILWAUKEE/TIMM SUNNY     64  41  42 S12G18    30.17F
RACINE         MOSUNNY   64  44  48 SW9       30.19F
BURLINGTON     SUNNY     63  42  46 SW8G21    30.18F
KENOSHA        MOSUNNY   63  46  54 SW12G20   30.19F
FOND DU LAC    MOSUNNY   64  45  49 S15G23    30.12F
SHEBOYGAN      MOSUNNY   63  44  50 SW16G23   30.13F
WEST BEND      MOSUNNY   63  41  45 SW13      30.15F
JUNEAU         MOSUNNY   63  45  51 S18       30.16F
$$

LSZ147-162-142200-
LAKE SUPERIOR

STATION/POSITION TIME  TEMP    WIND        PRES    WAVE
                       AIR SEA DIR/SP/G            HT/PER
                 (UTC) (F)     (DEG/KT/KT) (MB)    (FT/S)
W MID LAKE BUOY  1950   51 47  240/ 16/ 17 1015.5S   5/ 6
DEVILS ISLAND    2000   54     250/ 16/ 19 1016.7R
PORT WING        2000   58     260/ 13/ 18 1017.3S
SAXON HARBOR     2000   62     270/  7/ 13 1016.6R
$$

LMZ867-665-643>646-142200-
LAKE MICHIGAN

STATION/POSITION TIME  TEMP    WIND        PRES    WAVE
                       AIR SEA DIR/SP/G            HT/PER
                 (UTC) (F)     (DEG/KT/KT) (MB)    (FT/S)
N MID LAKE BUOY  1950   56 58  210/ 23/ 29 1019.3F   6/ 6
NORTHPORT PIER   2000   59     170/  9/ 16 1019.0F
KEWAUNEE LAKESHO 2000   54     180/ 12/ 17 1019.2F
SHEBOYGAN LAKESH 2000   56 51  170/ 22/ 23 1021.1F
PORT WASHINGTON  2000   67     210/  6/ 17 1021.7F
MILWAUKEE LAKESH 2000   61     210/ 13/ 16   N/A
S MID LAKE BUOY  1950   57 65  200/ 12/ 16 1023.7F   1/ 3
KENOSHA   LAKESH 2000   62     220/  8/ 16 1022.4F
$$

TC  - TEMPERATURE IN CELSIUS
VSB - VISIBILITY IN STATUTE MILES
WCI - WIND CHILL INDEX
HX  - HEAT INDEX



USA.gov is the U.S. government's official web portal to all federal, state and local government web resources and services.